�������l�o���
Date,Time,MP-1(��Sv/h),MP-2(��Sv/h),MP-3(��Sv/h),MP-4(��Sv/h),MP-5(��Sv/h),MP-6(��Sv/h),MP-7(��Sv/h),MP-8(��Sv/h),����,����(m/s),���J
2019/05/20,00:00,0.769,1.124,0.771,1.402,1.045,0.442,0.771,0.728,��,6.9,��
2019/05/20,00:10,0.771,1.124,0.773,1.404,1.045,0.441,0.771,0.726,��,7.2,��
2019/05/20,00:20,0.771,1.122,0.774,1.406,1.045,0.441,0.772,0.728,��,9.4,�L
2019/05/20,00:30,0.770,1.126,0.772,1.404,1.046,0.442,0.772,0.728,��,9.5,�L
2019/05/20,00:40,0.771,1.128,0.770,1.405,1.045,0.440,0.770,0.729,��,7.2,�L
2019/05/20,00:50,0.772,1.128,0.771,1.406,1.046,0.442,0.770,0.727,��,7.7,��
2019/05/20,01:00,0.770,1.126,0.773,1.404,1.045,0.442,0.771,0.729,��,8.9,��
2019/05/20,01:10,0.772,1.124,0.770,1.404,1.044,0.442,0.770,0.727,��,8.3,��
2019/05/20,01:20,0.772,1.125,0.771,1.405,1.046,0.442,0.771,0.728,��,9.4,��
2019/05/20,01:30,0.771,1.127,0.772,1.404,1.042,0.441,0.770,0.729,��,9.2,��
2019/05/20,01:40,0.771,1.124,0.772,1.404,1.045,0.440,0.772,0.729,��,9.0,�L
2019/05/20,01:50,0.773,1.125,0.772,1.406,1.045,0.441,0.772,0.727,��,8.9,��
2019/05/20,02:00,0.771,1.127,0.773,1.404,1.042,0.440,0.771,0.727,��쓌,9.1,��
2019/05/20,02:10,0.770,1.128,0.773,1.403,1.043,0.441,0.772,0.729,��쓌,10.6,��
2019/05/20,02:20,0.768,1.126,0.774,1.405,1.043,0.439,0.771,0.726,��,11.6,��
2019/05/20,02:30,0.771,1.123,0.770,1.405,1.042,0.439,0.771,0.727,��,8.9,��
2019/05/20,02:40,0.767,1.125,0.773,1.404,1.042,0.441,0.770,0.729,��,9.0,��
2019/05/20,02:50,0.769,1.122,0.773,1.404,1.040,0.439,0.770,0.729,��,10.0,��
2019/05/20,03:00,0.770,1.125,0.773,1.404,1.043,0.441,0.771,0.728,��,8.7,��
2019/05/20,03:10,0.768,1.123,0.772,1.404,1.043,0.439,0.768,0.728,��쓌,10.2,��
2019/05/20,03:20,0.769,1.124,0.773,1.404,1.044,0.439,0.769,0.728,��,9.9,��
2019/05/20,03:30,0.767,1.126,0.772,1.405,1.040,0.439,0.771,0.728,��쓌,10.0,��
2019/05/20,03:40,0.768,1.125,0.771,1.405,1.040,0.441,0.769,0.728,��,9.7,��
2019/05/20,03:50,0.769,1.124,0.771,1.405,1.042,0.439,0.770,0.728,��쓌,10.7,��
2019/05/20,04:00,0.769,1.123,0.773,1.404,1.042,0.439,0.770,0.727,��,10.3,��
2019/05/20,04:10,0.769,1.126,0.772,1.405,1.043,0.441,0.769,0.728,��,9.1,��
2019/05/20,04:20,0.769,1.124,0.772,1.406,1.043,0.439,0.770,0.729,��,10.6,��
2019/05/20,04:30,0.769,1.125,0.771,1.404,1.044,0.440,0.770,0.729,��,9.9,��
2019/05/20,04:40,0.768,1.123,0.772,1.405,1.043,0.440,0.768,0.731,��,9.2,�L
2019/05/20,04:50,0.771,1.122,0.772,1.404,1.042,0.440,0.769,0.727,��,8.3,��
2019/05/20,05:00,0.768,1.122,0.773,1.406,1.042,0.439,0.771,0.727,��,9.2,��
2019/05/20,05:10,0.771,1.125,0.772,1.405,1.044,0.439,0.769,0.727,��,8.3,��
2019/05/20,05:20,0.771,1.126,0.773,1.404,1.045,0.440,0.770,0.726,��,8.1,��
2019/05/20,05:30,0.771,1.126,0.773,1.403,1.044,0.440,0.772,0.728,��,6.8,��
2019/05/20,05:40,0.771,1.124,0.773,1.406,1.043,0.439,0.770,0.729,��,7.4,��
2019/05/20,05:50,0.772,1.123,0.773,1.404,1.043,0.440,0.768,0.728,��,8.0,��
2019/05/20,06:00,0.773,1.125,0.772,1.405,1.046,0.439,0.771,0.728,��,8.1,�L
2019/05/20,06:10,0.770,1.121,0.772,1.406,1.045,0.440,0.770,0.729,��,7.6,��
2019/05/20,06:20,0.770,1.124,0.774,1.405,1.046,0.440,0.768,0.729,��,9.5,�L
2019/05/20,06:30,0.772,1.125,0.773,1.406,1.045,0.439,0.769,0.729,��,9.7,�L
2019/05/20,06:40,0.771,1.124,0.772,1.404,1.044,0.440,0.769,0.727,��,10.0,��
2019/05/20,06:50,0.770,1.121,0.774,1.404,1.044,0.440,0.771,0.727,��,8.7,��
2019/05/20,07:00,0.769,1.123,0.774,1.406,1.044,0.440,0.769,0.727,��,8.8,��
2019/05/20,07:10,0.772,1.124,0.773,1.403,1.043,0.440,0.770,0.726,��,8.9,��
2019/05/20,07:20,0.770,1.121,0.774,1.407,1.044,0.438,0.771,0.729,��쓌,11.4,��
2019/05/20,07:30,0.772,1.123,0.772,1.405,1.047,0.439,0.769,0.727,��쓌,11.7,��
2019/05/20,07:40,0.769,1.124,0.773,1.408,1.046,0.439,0.770,0.727,��,13.0,��
2019/05/20,07:50,0.770,1.121,0.775,1.408,1.046,0.440,0.769,0.727,��,11.4,��
2019/05/20,08:00,0.768,1.123,0.769,1.406,1.043,0.438,0.770,0.725,��,11.6,��
2019/05/20,08:10,0.769,1.124,0.771,1.403,1.044,0.439,0.770,0.727,��,10.5,��
2019/05/20,08:20,0.769,1.121,0.770,1.404,1.046,0.441,0.769,0.726,��쓌,11.9,�L
2019/05/20,08:30,0.769,1.123,0.771,1.405,1.045,0.440,0.770,0.726,��쓌,13.3,��
2019/05/20,08:40,0.768,1.124,0.771,1.407,1.044,0.441,0.769,0.726,��,11.6,��
2019/05/20,08:50,0.769,1.122,0.769,1.409,1.043,0.441,0.770,0.727,��,11.1,��
2019/05/20,09:00,0.769,1.125,0.772,1.403,1.044,0.440,0.770,0.728,��쓌,11.7,��
2019/05/20,09:10,0.772,1.121,0.767,1.407,1.045,0.441,0.770,0.727,��,11.3,��
2019/05/20,09:20,0.772,1.123,0.769,1.402,1.047,0.440,0.772,0.726,��,11.9,��
2019/05/20,09:30,0.771,1.123,0.773,1.405,1.046,0.441,0.774,0.726,��쓌,14.4,��
2019/05/20,09:40,0.772,1.119,0.769,1.405,1.047,0.440,0.773,0.727,��쓌,14.9,��
2019/05/20,09:50,0.771,1.124,0.772,1.406,1.046,0.439,0.772,0.725,��쓌,13.3,��
2019/05/20,10:00,0.772,1.121,0.769,1.408,1.047,0.441,0.770,0.726,��쓌,14.1,��
2019/05/20,10:10,0.770,1.121,0.770,1.407,1.045,0.440,0.771,0.726,��쓌,13.5,��
2019/05/20,10:20,0.772,1.121,0.772,1.408,1.048,0.441,0.771,0.727,��,13.5,��
2019/05/20,10:30,0.771,1.122,0.770,1.406,1.047,0.441,0.772,0.727,��쓌,14.1,��
2019/05/20,10:40,0.771,1.123,0.771,1.406,1.049,0.440,0.773,0.727,��,13.0,��
2019/05/20,10:50,0.774,1.123,0.771,1.407,1.049,0.441,0.772,0.727,��쓌,15.2,��
2019/05/20,11:00,0.771,1.125,0.771,1.407,1.047,0.442,0.773,0.726,��쓌,14.2,��
2019/05/20,11:10,0.772,1.124,0.771,1.404,1.047,0.441,0.773,0.727,��,11.6,��
2019/05/20,11:20,0.773,1.126,0.772,1.405,1.047,0.441,0.773,0.727,��쓌,12.7,��
2019/05/20,11:30,0.772,1.124,0.773,1.407,1.049,0.442,0.772,0.727,��쓌,12.7,��
2019/05/20,11:40,0.773,1.126,0.773,1.407,1.050,0.441,0.771,0.726,��쓌,14.7,��
2019/05/20,11:50,0.773,1.126,0.773,1.405,1.050,0.441,0.771,0.726,��,14.4,��
2019/05/20,12:00,0.771,1.127,0.773,1.406,1.049,0.441,0.772,0.726,��쓌,13.0,��
2019/05/20,12:10,0.773,1.126,0.774,1.406,1.048,0.441,0.774,0.728,��쓌,14.7,��
2019/05/20,12:20,0.772,1.123,0.776,1.408,1.048,0.442,0.772,0.727,��,11.3,��
2019/05/20,12:30,0.775,1.125,0.773,1.411,1.050,0.442,0.772,0.725,��쓌,12.7,��
2019/05/20,12:40,0.773,1.126,0.771,1.408,1.049,0.442,0.773,0.728,��,12.8,��
2019/05/20,12:50,0.773,1.127,0.774,1.408,1.050,0.440,0.773,0.727,��,13.5,��
2019/05/20,13:00,0.774,1.128,0.772,1.408,1.051,0.440,0.771,0.728,��,13.6,��
2019/05/20,13:10,0.774,1.124,0.773,1.408,1.053,0.441,0.773,0.726,��,9.6,��
2019/05/20,13:20,0.773,1.124,0.775,1.410,1.049,0.441,0.773,0.726,��쓌,10.6,��
2019/05/20,13:30,0.774,1.122,0.774,1.407,1.051,0.440,0.774,0.727,��쓌,12.5,��
2019/05/20,13:40,0.774,1.124,0.772,1.410,1.049,0.440,0.770,0.727,��쓌,11.3,��
2019/05/20,13:50,0.773,1.121,0.773,1.410,1.051,0.441,0.772,0.727,��쓌,11.6,��
2019/05/20,14:00,0.774,1.121,0.773,1.409,1.054,0.441,0.773,0.727,��쓌,11.4,��
2019/05/20,14:10,0.774,1.125,0.773,1.410,1.050,0.442,0.773,0.727,��쓌,10.2,��
2019/05/20,14:20,0.775,1.127,0.774,1.410,1.053,0.442,0.771,0.727,��쓌,14.6,��
2019/05/20,14:30,0.775,1.128,0.773,1.409,1.051,0.440,0.772,0.726,��,12.5,��
2019/05/20,14:40,0.772,1.127,0.773,1.406,1.050,0.439,0.773,0.727,��쓌,12.4,��
2019/05/20,14:50,0.775,1.125,0.773,1.407,1.047,0.441,0.773,0.727,��쓌,12.7,��
2019/05/20,15:00,0.775,1.127,0.774,1.409,1.050,0.442,0.771,0.726,��쓌,13.8,��
2019/05/20,15:10,0.773,1.125,0.773,1.407,1.050,0.441,0.772,0.727,��쓌,12.4,��
2019/05/20,15:20,0.774,1.128,0.773,1.409,1.053,0.442,0.770,0.729,��쓌,10.6,��
2019/05/20,15:30,0.773,1.127,0.773,1.411,1.049,0.442,0.772,0.726,��,10.2,�L
2019/05/20,15:40,0.775,1.125,0.774,1.410,1.053,0.441,0.771,0.729,��,13.6,��
2019/05/20,15:50,0.774,1.127,0.775,1.407,1.050,0.442,0.771,0.728,��쓌,12.4,�L
2019/05/20,16:00,0.775,1.129,0.772,1.408,1.048,0.443,0.772,0.728,��,12.4,��
2019/05/20,16:10,0.775,1.126,0.774,1.408,1.047,0.440,0.771,0.728,��쓌,13.5,��
2019/05/20,16:20,0.774,1.126,0.773,1.410,1.053,0.441,0.772,0.729,��쓌,14.7,�L
2019/05/20,16:30,0.773,1.126,0.773,1.410,1.049,0.441,0.772,0.728,��,11.6,�L
2019/05/20,16:40,0.775,1.128,0.773,1.411,1.050,0.441,0.772,0.727,��,11.7,�L
2019/05/20,16:50,0.775,1.127,0.773,1.412,1.049,0.442,0.773,0.728,��,11.9,��
2019/05/20,17:00,0.776,1.127,0.772,1.413,1.046,0.440,0.771,0.728,��쓌,15.2,�L
2019/05/20,17:10,0.774,1.129,0.772,1.414,1.049,0.440,0.772,0.727,��,16.6,��
2019/05/20,17:20,0.778,1.127,0.774,1.414,1.050,0.441,0.773,0.728,��,11.1,�L
2019/05/20,17:30,0.777,1.126,0.773,1.411,1.047,0.440,0.771,0.729,��,11.4,�L
2019/05/20,17:40,0.777,1.123,0.770,1.411,1.041,0.440,0.773,0.727,��,13.1,�L
2019/05/20,17:50,0.775,1.123,0.772,1.408,1.043,0.441,0.771,0.728,��,11.7,��
2019/05/20,18:00,0.775,1.121,0.772,1.412,1.043,0.440,0.772,0.728,��,12.0,��
2019/05/20,18:10,0.776,1.121,0.773,1.410,1.046,0.440,0.772,0.729,��,11.3,�L
2019/05/20,18:20,0.775,1.117,0.771,1.409,1.042,0.441,0.772,0.726,��,12.7,�L
2019/05/20,18:30,0.775,1.117,0.770,1.409,1.043,0.439,0.770,0.728,��,11.7,�L
2019/05/20,18:40,0.775,1.116,0.771,1.408,1.042,0.440,0.772,0.730,��,10.5,�L
2019/05/20,18:50,0.777,1.116,0.769,1.407,1.043,0.441,0.772,0.729,��,10.0,�L
2019/05/20,19:00,0.776,1.117,0.770,1.408,1.040,0.442,0.771,0.730,��,9.3,�L
2019/05/20,19:10,0.776,1.116,0.772,1.409,1.043,0.440,0.772,0.728,��,10.5,��
2019/05/20,19:20,0.774,1.120,0.773,1.407,1.042,0.440,0.772,0.731,��,9.5,��
2019/05/20,19:30,0.775,1.117,0.772,1.407,1.042,0.440,0.771,0.731,��,10.2,��
2019/05/20,19:40,0.777,1.119,0.773,1.407,1.042,0.441,0.772,0.729,��,10.5,��
2019/05/20,19:50,0.778,1.116,0.774,1.408,1.041,0.439,0.772,0.730,��,9.1,�L
2019/05/20,20:00,0.778,1.119,0.772,1.409,1.042,0.442,0.771,0.730,��,7.6,�L
2019/05/20,20:10,0.776,1.117,0.772,1.408,1.041,0.440,0.772,0.729,��,8.6,�L
2019/05/20,20:20,0.777,1.117,0.773,1.407,1.044,0.440,0.772,0.731,��,9.8,��
2019/05/20,20:30,0.780,1.121,0.776,1.406,1.042,0.442,0.772,0.729,��,7.4,�L
2019/05/20,20:40,0.778,1.120,0.774,1.408,1.043,0.441,0.772,0.731,��,10.0,�L
2019/05/20,20:50,0.779,1.117,0.775,1.406,1.040,0.441,0.772,0.731,��,11.4,��
2019/05/20,21:00,0.777,1.118,0.774,1.409,1.041,0.441,0.773,0.730,��,11.0,��
2019/05/20,21:10,0.776,1.116,0.772,1.406,1.044,0.439,0.772,0.732,��,11.1,��
2019/05/20,21:20,0.776,1.121,0.772,1.407,1.043,0.441,0.773,0.730,��,10.3,��
2019/05/20,21:30,0.775,1.117,0.772,1.409,1.045,0.440,0.773,0.730,��,10.3,��
2019/05/20,21:40,0.776,1.116,0.772,1.408,1.042,0.439,0.774,0.731,��,10.8,��
2019/05/20,21:50,0.775,1.120,0.775,1.407,1.046,0.442,0.774,0.732,��,11.0,��
2019/05/20,22:00,0.776,1.119,0.773,1.408,1.043,0.441,0.775,0.730,��,11.0,��
2019/05/20,22:10,0.779,1.118,0.775,1.408,1.042,0.439,0.775,0.730,��,11.6,��
2019/05/20,22:20,0.778,1.118,0.774,1.407,1.043,0.442,0.774,0.732,��,12.4,�L
2019/05/20,22:30,0.777,1.119,0.776,1.409,1.043,0.440,0.774,0.730,��,12.4,�L
2019/05/20,22:40,0.778,1.119,0.775,1.409,1.042,0.441,0.774,0.731,��,11.9,�L
2019/05/20,22:50,0.776,1.117,0.775,1.411,1.043,0.440,0.773,0.731,��,14.1,��
2019/05/20,23:00,0.775,1.119,0.776,1.409,1.043,0.440,0.773,0.730,��,13.5,�L
2019/05/20,23:10,0.774,1.118,0.774,1.406,1.044,0.439,0.772,0.729,��,9.6,�L
2019/05/20,23:20,0.776,1.119,0.774,1.407,1.043,0.441,0.772,0.731,��,11.6,��
2019/05/20,23:30,0.775,1.119,0.774,1.409,1.040,0.441,0.773,0.729,��,11.6,��
2019/05/20,23:40,0.774,1.118,0.774,1.410,1.043,0.441,0.772,0.729,��,10.5,��
2019/05/20,23:50,0.778,1.119,0.774,1.408,1.043,0.441,0.774,0.730,��,11.6,�L
